{"data":{"norad_id":59500,"intl_designator":"2024-071S","name":"STARLINK-31512","alt_names":[],"object_type":"PAYLOAD","status":"ACTIVE","operator":null,"country":"US","launch_date":"2024-04-13","launch_site_code":"AFETR","launch_vehicle":null,"mission":null,"orbit_class":"UNKNOWN","rcs_meters":null,"size_class":null,"mass_kg":null,"dimensions":null,"purposes":["comms"],"wikipedia_slug":null,"has_3d_model":false,"image_url":null,"decayed_at":null,"tle_current":{"epoch":"2026-05-25T04:59:01.785984Z","epoch_age_seconds":64030,"freshness":"FRESH","line1":"1 59500U 24071S   26145.20765956 -.00000887  00000+0 -22702-4 0  9992","line2":"2 59500  43.0006 227.4621 0001034 254.1560 105.9178 15.27579578120368","mean_motion":15.27579578,"eccentricity":0.0001034,"inclination_deg":43.0006,"raan_deg":227.4621,"arg_perigee_deg":254.156,"mean_anomaly_deg":105.9178,"bstar":-2.2702e-5,"rev_number":12036,"period_min":94.26677475522,"perigee_km":482.34091288677,"apogee_km":483.75980643275,"semimajor_km":6861.1873596598,"source":"CELESTRAK","updated_at":"2026-05-25T13:38:18.971981Z"}}}